Time,TemperatureF,DewpointF,PressureIn,WindDirection,WindDirectionDegrees,WindSpeedMPH,WindSpeedGustMPH,Humidity,HourlyPrecipIn,Conditions,Clouds,dailyrainin,SoftwareType,DateUTC
2013-02-22 00:01:00,18.0,14.0,29.85,ENE,72,12.0,14.0,83,0.00,,,0.00,,2013-02-22 07:01:00,
2013-02-22 00:11:00,16.0,11.0,29.84,ENE,62,9.0,13.0,82,0.00,,,0.00,,2013-02-22 07:11:00,
2013-02-22 00:22:00,16.0,11.0,29.84,ENE,62,9.0,13.0,82,0.00,,,0.00,,2013-02-22 07:22:00,
2013-02-22 00:32:00,16.0,11.0,29.84,ENE,62,9.0,13.0,82,0.00,,,0.00,,2013-02-22 07:32:00,
2013-02-22 00:42:00,15.0,11.0,29.83,NE,54,10.0,12.0,83,0.00,,,0.00,,2013-02-22 07:42:00,
2013-02-22 00:52:00,15.0,11.0,29.83,NE,54,10.0,12.0,83,0.00,,,0.00,,2013-02-22 07:52:00,
2013-02-22 01:01:00,14.0,10.0,29.83,ENE,62,9.0,12.0,83,0.00,,,0.00,,2013-02-22 08:01:00,
2013-02-22 01:11:00,14.0,10.0,29.83,ENE,62,9.0,12.0,83,0.00,,,0.00,,2013-02-22 08:11:00,
2013-02-22 01:21:00,14.0,10.0,29.83,ENE,64,10.0,12.0,84,0.00,,,0.00,,2013-02-22 08:21:00,
2013-02-22 01:31:00,14.0,10.0,29.83,ENE,62,11.0,14.0,84,0.00,,,0.00,,2013-02-22 08:31:00,
2013-02-22 01:41:00,14.0,10.0,29.83,ENE,62,11.0,14.0,84,0.00,,,0.00,,2013-02-22 08:41:00,
2013-02-22 01:52:00,14.0,10.0,29.83,ENE,63,9.0,13.0,84,0.00,,,0.00,,2013-02-22 08:52:00,
2013-02-22 02:03:00,15.0,11.0,29.83,ENE,60,10.0,12.0,84,0.00,,,0.00,,2013-02-22 09:03:00,
2013-02-22 02:11:00,14.0,10.0,29.83,ENE,65,9.0,13.0,84,0.00,,,0.00,,2013-02-22 09:11:00,
2013-02-22 02:21:00,14.0,10.0,29.83,ENE,65,9.0,13.0,84,0.00,,,0.00,,2013-02-22 09:21:00,
2013-02-22 02:32:00,14.0,10.0,29.83,ENE,61,9.0,12.0,84,0.00,,,0.00,,2013-02-22 09:32:00,
2013-02-22 02:42:00,14.0,10.0,29.83,ENE,61,9.0,12.0,84,0.00,,,0.00,,2013-02-22 09:42:00,
2013-02-22 02:52:00,13.0,9.0,29.82,ENE,59,9.0,12.0,83,0.00,,,0.00,,2013-02-22 09:52:00,
2013-02-22 03:01:00,13.0,9.0,29.82,ENE,60,7.0,12.0,84,0.00,,,0.00,,2013-02-22 10:01:00,
2013-02-22 03:11:00,13.0,9.0,29.82,ENE,60,7.0,12.0,84,0.00,,,0.00,,2013-02-22 10:11:00,
2013-02-22 03:21:00,14.0,10.0,29.81,ENE,62,10.0,13.0,84,0.00,,,0.00,,2013-02-22 10:21:00,
2013-02-22 03:31:00,14.0,10.0,29.81,ENE,58,10.0,13.0,83,0.00,,,0.00,,2013-02-22 10:31:00,
2013-02-22 03:42:00,14.0,10.0,29.81,ENE,58,10.0,13.0,83,0.00,,,0.00,,2013-02-22 10:42:00,
2013-02-22 03:52:00,13.0,9.0,29.82,ENE,64,5.0,12.0,83,0.00,,,0.00,,2013-02-22 10:52:00,
2013-02-22 04:01:00,13.0,9.0,29.81,ENE,62,9.0,12.0,83,0.00,,,0.00,,2013-02-22 11:01:00,
2013-02-22 04:11:00,13.0,9.0,29.81,ENE,62,9.0,12.0,83,0.00,,,0.00,,2013-02-22 11:11:00,
2013-02-22 04:21:00,14.0,10.0,29.81,ENE,64,8.0,10.0,84,0.00,,,0.00,,2013-02-22 11:21:00,
2013-02-22 04:32:00,15.0,11.0,29.81,ENE,73,9.0,12.0,84,0.00,,,0.00,,2013-02-22 11:32:00,
2013-02-22 04:42:00,15.0,11.0,29.81,ENE,73,9.0,12.0,84,0.00,,,0.00,,2013-02-22 11:42:00,
2013-02-22 04:52:00,15.0,11.0,29.80,ENE,76,9.0,12.0,84,0.00,,,0.00,,2013-02-22 11:52:00,
2013-02-22 05:02:00,16.0,12.0,29.80,ENE,64,9.0,12.0,84,0.00,,,0.00,,2013-02-22 12:02:00,
2013-02-22 05:11:00,16.0,12.0,29.80,ENE,64,9.0,12.0,84,0.00,,,0.00,,2013-02-22 12:11:00,
2013-02-22 05:22:00,16.0,12.0,29.80,ENE,69,8.0,10.0,84,0.00,,,0.00,,2013-02-22 12:22:00,
2013-02-22 05:32:00,16.0,12.0,29.80,ENE,69,8.0,10.0,84,0.00,,,0.00,,2013-02-22 12:32:00,
2013-02-22 05:42:00,16.0,12.0,29.80,ENE,69,8.0,10.0,84,0.00,,,0.00,,2013-02-22 12:42:00,
2013-02-22 05:52:00,16.0,12.0,29.80,ENE,69,7.0,12.0,84,0.00,,,0.00,,2013-02-22 12:52:00,
2013-02-22 06:01:00,16.0,12.0,29.81,ENE,70,9.0,12.0,84,0.00,,,0.00,,2013-02-22 13:01:00,
2013-02-22 06:11:00,16.0,12.0,29.81,ENE,70,9.0,12.0,84,0.00,,,0.00,,2013-02-22 13:11:00,
2013-02-22 06:22:00,16.0,12.0,29.80,ENE,63,9.0,12.0,83,0.00,,,0.00,,2013-02-22 13:22:00,
2013-02-22 06:32:00,16.0,12.0,29.80,ENE,65,9.0,12.0,83,0.00,,,0.00,,2013-02-22 13:32:00,
2013-02-22 06:42:00,16.0,12.0,29.80,ENE,65,9.0,12.0,83,0.00,,,0.00,,2013-02-22 13:42:00,
2013-02-22 06:52:00,16.0,12.0,29.80,ENE,65,9.0,12.0,83,0.00,,,0.00,,2013-02-22 13:52:00,
2013-02-22 07:01:00,14.0,10.0,29.80,ENE,59,8.0,12.0,83,0.00,,,0.00,,2013-02-22 14:01:00,
2013-02-22 07:11:00,14.0,10.0,29.80,ENE,59,8.0,12.0,83,0.00,,,0.00,,2013-02-22 14:11:00,
2013-02-22 07:21:00,14.0,10.0,29.80,ENE,59,8.0,12.0,83,0.00,,,0.00,,2013-02-22 14:21:00,
2013-02-22 07:32:00,14.0,10.0,29.81,ENE,63,9.0,12.0,84,0.00,,,0.00,,2013-02-22 14:32:00,
2013-02-22 07:42:00,15.0,11.0,29.80,ENE,64,9.0,12.0,84,0.00,,,0.00,,2013-02-22 14:42:00,
2013-02-22 07:53:00,15.0,11.0,29.80,ENE,64,9.0,12.0,84,0.00,,,0.00,,2013-02-22 14:53:00,
2013-02-22 08:01:00,15.0,11.0,29.81,ENE,61,8.0,12.0,84,0.00,,,0.00,,2013-02-22 15:01:00,
2013-02-22 08:11:00,16.0,12.0,29.81,ENE,65,7.0,10.0,84,0.00,,,0.00,,2013-02-22 15:11:00,
2013-02-22 08:21:00,16.0,12.0,29.81,ENE,65,7.0,10.0,84,0.00,,,0.00,,2013-02-22 15:21:00,
2013-02-22 08:32:00,16.0,12.0,29.81,ENE,65,7.0,10.0,84,0.00,,,0.00,,2013-02-22 15:32:00,
2013-02-22 08:41:00,16.0,12.0,29.81,ENE,65,7.0,10.0,84,0.00,,,0.00,,2013-02-22 15:41:00,
2013-02-22 08:52:00,18.0,14.0,29.81,ENE,75,7.0,12.0,84,0.00,,,0.00,,2013-02-22 15:52:00,
2013-02-22 09:01:00,18.0,14.0,29.81,ENE,71,6.0,9.0,84,0.00,,,0.00,,2013-02-22 16:01:00,
2013-02-22 09:12:00,20.0,16.0,29.81,ENE,69,4.0,7.0,84,0.00,,,0.00,,2013-02-22 16:12:00,
2013-02-22 09:21:00,20.0,16.0,29.81,ENE,69,4.0,7.0,84,0.00,,,0.00,,2013-02-22 16:21:00,
2013-02-22 09:31:00,20.0,16.0,29.81,ENE,74,5.0,6.0,84,0.00,,,0.00,,2013-02-22 16:31:00,
2013-02-22 09:42:00,20.0,16.0,29.81,ENE,74,5.0,6.0,84,0.00,,,0.00,,2013-02-22 16:42:00,
2013-02-22 09:52:00,22.0,18.0,29.80,East,82,7.0,10.0,84,0.00,,,0.00,,2013-02-22 16:52:00,
2013-02-22 10:01:00,23.0,18.0,29.80,East,92,6.0,10.0,82,0.00,,,0.00,,2013-02-22 17:01:00,
2013-02-22 10:11:00,23.0,18.0,29.80,East,92,6.0,10.0,82,0.00,,,0.00,,2013-02-22 17:11:00,
2013-02-22 10:21:00,23.0,18.0,29.80,East,92,6.0,10.0,82,0.00,,,0.00,,2013-02-22 17:21:00,
2013-02-22 10:31:00,25.0,19.0,29.80,ESE,112,5.0,7.0,78,0.00,,,0.00,,2013-02-22 17:31:00,
2013-02-22 10:42:00,25.0,19.0,29.80,ESE,112,5.0,7.0,78,0.00,,,0.00,,2013-02-22 17:42:00,
2013-02-22 10:52:00,27.0,20.0,29.79,ESE,113,4.0,6.0,73,0.00,,,0.00,,2013-02-22 17:52:00,
2013-02-22 11:01:00,28.0,20.0,29.79,East,101,3.0,6.0,71,0.00,,,0.00,,2013-02-22 18:01:00,
2013-02-22 11:12:00,28.0,19.0,29.79,ESE,111,3.0,6.0,69,0.00,,,0.00,,2013-02-22 18:12:00,
2013-02-22 11:22:00,28.0,19.0,29.79,ESE,111,3.0,6.0,69,0.00,,,0.00,,2013-02-22 18:22:00,
2013-02-22 11:32:00,30.0,21.0,29.78,ESE,114,3.0,7.0,69,0.00,,,0.00,,2013-02-22 18:32:00,
2013-02-22 11:42:00,30.0,21.0,29.78,ESE,114,3.0,7.0,69,0.00,,,0.00,,2013-02-22 18:42:00,
2013-02-22 11:52:00,30.0,21.0,29.78,ESE,114,3.0,7.0,69,0.00,,,0.00,,2013-02-22 18:52:00,
2013-02-22 12:01:00,32.0,22.0,29.78,SE,131,3.0,6.0,65,0.00,,,0.00,,2013-02-22 19:01:00,
2013-02-22 12:11:00,34.0,22.0,29.77,SE,138,4.0,6.0,62,0.00,,,0.00,,2013-02-22 19:11:00,
2013-02-22 12:21:00,34.0,22.0,29.77,SE,138,4.0,6.0,62,0.00,,,0.00,,2013-02-22 19:21:00,
2013-02-22 12:31:00,34.0,22.0,29.77,SE,138,4.0,6.0,62,0.00,,,0.00,,2013-02-22 19:31:00,
2013-02-22 12:41:00,35.0,23.0,29.75,ESE,116,4.0,7.0,61,0.00,,,0.00,,2013-02-22 19:41:00,
2013-02-22 12:52:00,35.0,23.0,29.75,ESE,116,4.0,7.0,61,0.00,,,0.00,,2013-02-22 19:52:00,
2013-02-22 13:01:00,35.0,23.0,29.75,ESE,116,4.0,7.0,61,0.00,,,0.00,,2013-02-22 20:01:00,
2013-02-22 13:11:00,35.0,23.0,29.75,ESE,116,4.0,7.0,61,0.00,,,0.00,,2013-02-22 20:11:00,
2013-02-22 13:21:00,36.0,24.0,29.73,ESE,114,5.0,9.0,62,0.00,,,0.00,,2013-02-22 20:21:00,
2013-02-22 13:31:00,37.0,25.0,29.73,SE,136,5.0,10.0,61,0.00,,,0.00,,2013-02-22 20:31:00,
2013-02-22 13:42:00,37.0,25.0,29.73,SE,136,5.0,10.0,61,0.00,,,0.00,,2013-02-22 20:42:00,
2013-02-22 13:52:00,37.0,25.0,29.73,SE,136,5.0,10.0,61,0.00,,,0.00,,2013-02-22 20:52:00,
2013-02-22 14:01:00,38.0,25.0,29.71,ESE,112,7.0,10.0,60,0.00,,,0.00,,2013-02-22 21:01:00,
2013-02-22 14:11:00,39.0,25.0,29.70,ESE,107,7.0,12.0,58,0.00,,,0.00,,2013-02-22 21:11:00,
2013-02-22 14:21:00,39.0,25.0,29.70,ESE,107,7.0,12.0,58,0.00,,,0.00,,2013-02-22 21:21:00,
2013-02-22 14:32:00,39.0,25.0,29.70,ESE,102,7.0,12.0,57,0.00,,,0.00,,2013-02-22 21:32:00,
2013-02-22 14:42:00,39.0,25.0,29.70,ESE,102,7.0,12.0,57,0.00,,,0.00,,2013-02-22 21:42:00,
2013-02-22 14:52:00,39.0,24.0,29.69,SE,126,8.0,10.0,54,0.00,,,0.00,,2013-02-22 21:52:00,
2013-02-22 15:01:00,39.0,24.0,29.69,East,99,8.0,10.0,54,0.00,,,0.00,,2013-02-22 22:01:00,
2013-02-22 15:11:00,39.0,24.0,29.69,East,99,8.0,10.0,54,0.00,,,0.00,,2013-02-22 22:11:00,
2013-02-22 15:21:00,39.0,24.0,29.69,East,99,8.0,10.0,54,0.00,,,0.00,,2013-02-22 22:21:00,
2013-02-22 15:31:00,39.0,24.0,29.69,East,99,8.0,10.0,54,0.00,,,0.00,,2013-02-22 22:31:00,
2013-02-22 15:41:00,39.0,24.0,29.69,East,99,8.0,10.0,54,0.00,,,0.00,,2013-02-22 22:41:00,
2013-02-22 15:52:00,40.0,23.0,29.67,ESE,111,6.0,10.0,51,0.00,,,0.00,,2013-02-22 22:52:00,
2013-02-22 16:01:00,40.0,24.0,29.67,ESE,109,7.0,10.0,53,0.00,,,0.00,,2013-02-22 23:01:00,
2013-02-22 16:11:00,40.0,24.0,29.67,ESE,109,7.0,10.0,53,0.00,,,0.00,,2013-02-22 23:11:00,
2013-02-22 16:21:00,39.0,24.0,29.67,ESE,104,5.0,9.0,55,0.00,,,0.00,,2013-02-22 23:21:00,
2013-02-22 16:31:00,39.0,24.0,29.67,ESE,104,5.0,9.0,55,0.00,,,0.00,,2013-02-22 23:31:00,
2013-02-22 16:41:00,39.0,24.0,29.67,ESE,104,5.0,9.0,55,0.00,,,0.00,,2013-02-22 23:41:00,
2013-02-22 16:52:00,38.0,25.0,29.66,East,94,7.0,9.0,60,0.00,,,0.00,,2013-02-22 23:52:00,
2013-02-22 17:01:00,38.0,25.0,29.66,ESE,102,6.0,7.0,59,0.00,,,0.00,,2013-02-23 00:01:00,
2013-02-22 17:11:00,37.0,25.0,29.66,East,89,5.0,9.0,61,0.00,,,0.00,,2013-02-23 00:11:00,
2013-02-22 17:21:00,37.0,25.0,29.66,East,89,5.0,9.0,61,0.00,,,0.00,,2013-02-23 00:21:00,
2013-02-22 17:32:00,37.0,25.0,29.66,East,87,6.0,9.0,61,0.00,,,0.00,,2013-02-23 00:32:00,
2013-02-22 17:42:00,37.0,25.0,29.66,East,87,6.0,9.0,61,0.00,,,0.00,,2013-02-23 00:42:00,
2013-02-22 17:52:00,36.0,25.0,29.66,East,90,5.0,9.0,63,0.00,,,0.00,,2013-02-23 00:52:00,
2013-02-22 18:01:00,34.0,23.0,29.65,East,88,5.0,6.0,65,0.00,,,0.00,,2013-02-23 01:01:00,
2013-02-22 18:11:00,34.0,23.0,29.65,East,88,5.0,6.0,65,0.00,,,0.00,,2013-02-23 01:11:00,
2013-02-22 18:21:00,34.0,23.0,29.65,East,88,5.0,6.0,65,0.00,,,0.00,,2013-02-23 01:21:00,
2013-02-22 18:31:00,32.0,23.0,29.65,East,79,6.0,7.0,70,0.00,,,0.00,,2013-02-23 01:31:00,
2013-02-22 18:42:00,32.0,23.0,29.65,East,79,6.0,7.0,70,0.00,,,0.00,,2013-02-23 01:42:00,
2013-02-22 18:52:00,31.0,23.0,29.63,ENE,74,6.0,7.0,71,0.00,,,0.00,,2013-02-23 01:52:00,
2013-02-22 19:01:00,29.0,21.0,29.63,NE,46,8.0,10.0,73,0.00,,,0.00,,2013-02-23 02:01:00,
2013-02-22 19:11:00,29.0,22.0,29.62,ENE,64,9.0,12.0,76,0.00,,,0.00,,2013-02-23 02:11:00,
2013-02-22 19:21:00,29.0,22.0,29.62,ENE,64,9.0,12.0,76,0.00,,,0.00,,2013-02-23 02:21:00,
2013-02-22 19:31:00,29.0,22.0,29.62,ENE,64,9.0,12.0,76,0.00,,,0.00,,2013-02-23 02:31:00,
2013-02-22 19:41:00,29.0,22.0,29.62,ENE,64,9.0,12.0,76,0.00,,,0.00,,2013-02-23 02:41:00,
2013-02-22 19:52:00,29.0,22.0,29.61,ENE,65,8.0,10.0,75,0.00,,,0.00,,2013-02-23 02:52:00,
2013-02-22 20:01:00,28.0,21.0,29.60,ENE,65,7.0,10.0,75,0.00,,,0.00,,2013-02-23 03:01:00,
2013-02-22 20:11:00,28.0,21.0,29.60,ENE,65,7.0,10.0,75,0.00,,,0.00,,2013-02-23 03:11:00,
2013-02-22 20:21:00,29.0,21.0,29.60,ENE,71,9.0,12.0,73,0.00,,,0.00,,2013-02-23 03:21:00,
2013-02-22 20:31:00,29.0,21.0,29.60,East,82,7.0,12.0,73,0.00,,,0.00,,2013-02-23 03:31:00,
2013-02-22 20:41:00,29.0,21.0,29.60,East,82,7.0,12.0,73,0.00,,,0.00,,2013-02-23 03:41:00,
2013-02-22 20:52:00,29.0,22.0,29.59,ENE,75,8.0,12.0,74,0.00,,,0.00,,2013-02-23 03:52:00,
2013-02-22 21:01:00,28.0,21.0,29.59,ENE,76,7.0,12.0,75,0.00,,,0.00,,2013-02-23 04:01:00,
2013-02-22 21:11:00,28.0,21.0,29.59,ENE,71,7.0,10.0,75,0.00,,,0.00,,2013-02-23 04:11:00,
2013-02-22 21:21:00,28.0,21.0,29.59,ENE,71,7.0,10.0,75,0.00,,,0.00,,2013-02-23 04:21:00,
2013-02-22 21:31:00,27.0,20.0,29.59,ENE,76,7.0,9.0,76,0.00,,,0.00,,2013-02-23 04:31:00,
2013-02-22 21:41:00,27.0,20.0,29.59,ENE,76,7.0,9.0,76,0.00,,,0.00,,2013-02-23 04:41:00,
2013-02-22 21:52:00,27.0,20.0,29.59,ENE,76,7.0,9.0,76,0.00,,,0.00,,2013-02-23 04:52:00,
2013-02-22 22:02:00,28.0,20.0,29.58,East,88,8.0,12.0,72,0.00,,,0.00,,2013-02-23 05:02:00,
2013-02-22 22:12:00,28.0,20.0,29.58,East,88,8.0,12.0,72,0.00,,,0.00,,2013-02-23 05:12:00,
2013-02-22 22:22:00,28.0,20.0,29.58,East,90,8.0,12.0,70,0.00,,,0.00,,2013-02-23 05:22:00,
2013-02-22 22:32:00,28.0,20.0,29.56,East,85,9.0,10.0,70,0.00,,,0.00,,2013-02-23 05:32:00,
2013-02-22 22:41:00,28.0,20.0,29.56,East,85,9.0,10.0,70,0.00,,,0.00,,2013-02-23 05:41:00,
2013-02-22 22:52:00,28.0,20.0,29.56,East,85,9.0,10.0,70,0.00,,,0.00,,2013-02-23 05:52:00,
2013-02-22 23:01:00,28.0,20.0,29.54,East,80,10.0,13.0,70,0.00,,,0.00,,2013-02-23 06:01:00,
2013-02-22 23:11:00,28.0,20.0,29.54,East,80,10.0,13.0,70,0.00,,,0.00,,2013-02-23 06:11:00,
2013-02-22 23:22:00,28.0,20.0,29.54,East,87,7.0,14.0,70,0.00,,,0.00,,2013-02-23 06:22:00,
2013-02-22 23:31:00,28.0,20.0,29.54,East,83,10.0,13.0,70,0.00,,,0.00,,2013-02-23 06:31:00,
2013-02-22 23:41:00,28.0,20.0,29.54,East,83,10.0,13.0,70,0.00,,,0.00,,2013-02-23 06:41:00,
2013-02-22 23:52:00,28.0,20.0,29.54,East,88,7.0,12.0,70,0.00,,,0.00,,2013-02-23 06:52:00,